User: anonymous   Login
Location: *
(47.2969°N, 10.2930°E)
Time: 21:18:44
(UTC+00:00)
Language:

Mayak - Orbit

View from above orbital plane
View from above orbital plane
View from above satellite
View from above satellite

Ground track
Ground track

The orbit data is extracted from the following two-line orbital elements,

1 42830U 17042F   20185.45567519  .00000209  00000-0  25724-4 0  9994
2 42830  97.5261  67.9658 0012821 221.6181 138.4064 14.92251312161740
Epoch (UTC): 03 July 2020 10:56:10
Eccentricity: 0.0012821
inclination: 97.5261°
perigee height: 582 km
apogee height: 600 km
right ascension of ascending node: 67.9658°
argument of perigee: 221.6181°
revolutions per day: 14.92251312
mean anomaly at epoch: 138.4064°
orbit number at epoch: 16174

The dashed part of the orbit path shows where the satellite is in the earth's shadow,  

DLR